Home   Weather   Vancouver   Past weeks

Flag for Canada Past Weather in Vancouver, British Columbia, Canada — Yesterday and Last 2 Weeks

57 °F

Partly sunny.

Feels Like: 53 °F
Forecast: 50 / 54 °F
Wind: 20 mph from Southeast

Location: Vancouver International Airport

Current Time: Oct 25, 2016 at 10:23:53 AM

Latest Report: Oct 25, 2016 at 10:00 AM

Visibility: 20 mi

Pressure: 29.86 "Hg

Humidity: 63%

Dew Point: 45 °F

Location of VancouverLocation

Past Weather in Vancouver — Graph


Vancouver Temperature Yesterday

Maximum temperature yesterday: 55 °F (at 12:00 AM)
Minimum temperature yesterday: 50 °F (at 8:00 AM)
Average temperature yesterday: 53 °F

High & Low Weather Summary for the Past Weeks

High61 °F (Oct 23, 3:00 PM)100% (Oct 17, 9:00 AM)30.30 "Hg (Oct 17, 9:00 AM)
Low36 °F (Oct 11, 4:00 AM)47% (Oct 11, 1:00 PM)29.00 "Hg (Oct 15, 6:00 PM)
Average52 °F84%29.79 "Hg
* Reported Oct 10 9:00 AM — Oct 25 9:00 AM, Vancouver, Weather by CustomWeather, © 2016

Note: Actual official high and low records may vary slightly from our data, if they occured in-between our weather recording intervals... More about our weather records


Vancouver Weather History for the Previous 24 Hours

Scroll right to see more
Time TempWeatherWind HumidityBarometerVisibility
9:00 AM
Tue, Oct 25
55 °FCloudy.14 mph67%29.85 "Hg20 mi
8:00 AM55 °FCloudy.20 mph67%29.82 "Hg20 mi
7:00 AM55 °FMostly cloudy.22 mph63%29.79 "Hg20 mi
6:00 AM54 °FLight rain. Overcast.14 mph77%29.78 "Hg20 mi
5:00 AM52 °FMostly cloudy.12 mph82%29.77 "Hg20 mi
4:00 AM54 °FMostly cloudy.17 mph72%29.76 "Hg20 mi
3:00 AM54 °FOvercast.17 mph72%29.76 "Hg20 mi
2:00 AM54 °FPassing clouds.13 mph72%29.75 "Hg20 mi
1:00 AM52 °FPassing clouds.15 mph82%29.74 "Hg20 mi
12:00 AM54 °FOvercast.13 mph77%29.74 "Hg20 mi
11:00 PM
Mon, Oct 24
54 °FMostly cloudy.14 mph77%29.73 "Hg15 mi
10:00 PM54 °FMostly cloudy.12 mph82%29.72 "Hg15 mi
9:00 PM54 °FMostly cloudy.12 mph82%29.71 "Hg15 mi
8:00 PM54 °FLight rain. Mostly cloudy.18 mph88%29.68 "Hg15 mi
7:00 PM54 °FOvercast.16 mph88%29.67 "Hg20 mi
6:00 PM54 °FRain. Cloudy.9 mph88%29.65 "Hg15 mi
5:47 PM54 °FRain. Cloudy.8 mph88%29.66 "Hg15 mi
5:00 PM52 °FLight rain. Mostly cloudy.2 mph94%29.66 "Hg20 mi
4:00 PM54 °FLight rain. Cloudy.8 mph82%29.63 "Hg25 mi
3:00 PM52 °FLight rain. Cloudy.10 mph94%29.62 "Hg25 mi
2:00 PM52 °FMostly cloudy.12 mph94%29.59 "Hg20 mi
1:00 PM55 °FCloudy.3 mph88%29.56 "Hg30 mi
12:00 PM52 °FCloudy.7 mph94%29.57 "Hg30 mi
11:00 AM52 °FCloudy.5 mph94%29.57 "Hg30 mi
10:00 AM54 °FMostly cloudy.3 mph88%29.58 "Hg30 mi
Weather by CustomWeather, © 2016

See weather overviewHow to use our weather pages